Location: Pasadena, ca
(34.1243°N, 118.1037°W)
Time: 01:19:04
(UTC-07:00)

Tiangong 1 - Pass Details

Date: 16 October 2017
Orbit: 292 x 320 km, 42.8° (Epoch: 22 October)

Event Time Altitude Azimuth Distance (km) Brightness Sun altitude
Rises 18:53:43 0° 301° (WNW) 2,045 5.7 -8.5°
Reaches altitude 10° 18:55:44 10° 307° (NW) 1,208 4.3 -8.9°
Maximum altitude 18:58:24 53° 26° (NNE) 388 0.9 -9.4°
Enters shadow 19:00:25 15° 102° (ESE) 951 2.4 -9.8°
